Location: Assche-ter-Heiden
(50.9174°N, 4.1574°E)
Time: 02:33:57
(UTC+00:00)

Cosmos 1726 - Pass Details

Date: 20 January 2020
Orbit: 483 x 500 km, 82.5° (Epoch: 22 February)

Event Time Altitude Azimuth Distance (km) Brightness Sun altitude
Rises 04:58:49 0° 164° (SSE) 2,560 6.0 -24.2°
Reaches altitude 10° 05:01:04 10° 154° (SSE) 1,680 5.1 -23.8°
Maximum altitude 05:04:19 30° 92° (E) 898 4.0 -23.3°
Drops below altitude 10° 05:07:35 10° 29° (NNE) 1,686 5.1 -22.8°
Sets 05:09:50 0° 19° (NNE) 2,570 5.9 -22.5°
